Content
SEND FEEDBACK

Daily
Averages
Monthly
Summary
United States of America

SOLDIER SUMMIT, UTAH


Home > North America > United States > Utah
Elevation: 2426 meters     Latitude: 39 56N     Longitude: 111 04W

WEATHER
 
SELECT A DAY
Number of Records: 179,622;   Date Range: 1/1/95 - 12/19/14
 
SHARE

PRINT THIS DATA

[ ← Previous Day ]
WEATHER ALMANAC - 31 JANUARY, 2013
[ Next Day → ]
[ °F ]   °C
Weather ElementAverageHighLow
Temperature0.8 °C3.9 °C (3:53 pm)-5.6 °C (11:53 pm)
Dewpoint-7.5 °C-6.1 °C (1:53 pm)-9.4 °C (11:53 pm)
Humidity55.2 %75 % (11:53 pm)45 % (3:53 pm)
Barometer1026.8 hPa1029.5 hPa (9:53 pm)1023.4 hPa (4:53 am)
Wind Speed6.9 km/h16.7 km/h (6:53 am)
Wind Gust44.4 km/h (1:53 am)
Weather ElementAverage
Visibility16.1 km
Wind DirectionSSE (147.8 °)

Weather ElementTotal
Precipitation---
Heating Degree Days19.2 (Base 18.3)
Averaged from 23 records on 31 January, 2013
WEATHER CONDITIONS BREAKOUT
WIND DIRECTION BREAKOUT
WEATHER BY HOUR - 31 JANUARY, 2013
[ °F ]   °C
Local TimeTemperatureDewpointHumidityBarometerVisibilityWind DirectionWind SpeedGust SpeedPrecipitationEventsConditions
1:53 AM2.2 °C-7.2 °C50 %1024 hPa16.1 kmNW (310°)13 km/h44.4 km/hPartly Cloudy
2:53 AM2.2 °C-7.2 °C50 %1024 hPa16.1 kmVariable5.6 km/hClear
3:53 AM2.8 °C-7.8 °C46 %1024.4 hPa16.1 kmVariable5.6 km/hMostly Cloudy
4:53 AM2.2 °C-8.3 °C46 %1023.4 hPa16.1 kmWNW (300°)14.8 km/hClear
5:53 AM0.6 °C-8.3 °C52 %1024.7 hPa16.1 kmNW (310°)13 km/hClear
6:53 AM-0.6 °C-8.3 °C57 %1025.7 hPa16.1 kmNW (310°)16.7 km/hClear
7:53 AM1.1 °C-7.8 °C52 %1026.8 hPa16.1 kmWNW (290°)14.8 km/hClear
8:53 AM2.8 °C-7.8 °C46 %1026.8 hPa16.1 kmWNW (300°)9.3 km/hClear
9:53 AM-1.1 °C-8.3 °C59 %1028.4 hPa16.1 kmCalmClear
10:53 AM0.6 °C-7.2 °C56 %1028.4 hPa16.1 kmSE (130°)7.4 km/hClear
11:53 AM1.1 °C-7.2 °C54 %1027.8 hPa16.1 kmSW (220°)5.6 km/hClear
12:53 PM2.8 °C-6.7 °C50 %1026.4 hPa16.1 kmCalmClear
1:53 PM2.8 °C-6.1 °C52 %1026.4 hPa16.1 kmSE (140°)5.6 km/hClear
2:53 PM3.3 °C-6.1 °C51 %1026.1 hPa16.1 kmEast (80°)5.6 km/hClear
3:53 PM3.9 °C-7.2 °C45 %1025.7 hPa16.1 kmSSE (150°)5.6 km/hClear
4:53 PM3.3 °C-7.2 °C47 %1026.1 hPa16.1 kmCalmClear
5:53 PM1.7 °C-6.7 °C54 %1027.1 hPa16.1 kmESE (120°)5.6 km/hClear
6:53 PM-0.6 °C-7.2 °C61 %1028.4 hPa16.1 kmCalmClear
7:53 PM-1.1 °C-7.2 °C64 %1028.8 hPa16.1 kmNorth (360°)11.1 km/hClear
8:53 PM-1.7 °C-7.2 °C67 %1028.1 hPa16.1 kmNorth (360°)5.6 km/hClear
9:53 PM-3.3 °C-7.8 °C71 %1029.5 hPa16.1 kmNNE (20°)13 km/hClear
10:53 PM-1.7 °C-7.8 °C64 %1028.4 hPa16.1 kmCalmClear
11:53 PM-5.6 °C-9.4 °C75 %1028.8 hPa16.1 kmCalmClear
Hourly data recorded from KPUC, located 0 kilometers away from Soldier Summit, Utah







STORIES FROM OUR PARTNERS